This is the latest recevied weather packets stored in our database for station/object KQ4NAL. If no packets are shown the sender has not sent any weather packets the latest 1 day(s).
| Time | Temp. | Humidity | Pressure | Rain* | Wind** | Luminosity | Snow |
|---|---|---|---|---|---|---|---|
| 1778078848 | 11.67° C | 76% | 1013.9 hPa | 0 mm | - | 477 W/m² | - |
| 1778077940 | 11.67° C | 80% | 1013.5 hPa | 0 mm | - | 655 W/m² | - |
| 1778077336 | 11.11° C | 80% | 1013.4 hPa | 0 mm | - | 408 W/m² | - |
| 1778076126 | 10° C | 85% | 1013.1 hPa | 0 mm | - | 466 W/m² | - |
| 1778075519 | 10° C | 90% | 1012.8 hPa | 0 mm | - | 347 W/m² | - |
| 1778074306 | 8.89° C | 98% | 1013.5 hPa | 0 mm | - | 386 W/m² | - |
| 1778072488 | 7.78° C | 99% | 1012.3 hPa | 0 mm | - | 268 W/m² | - |
| 1778071279 | 7.78° C | 99% | 1012.4 hPa | 0 mm | - | 144 W/m² | - |
| 1778070371 | 7.22° C | 99% | 1012.3 hPa | 0 mm | - | 129 W/m² | - |
| 1778067649 | 6.67° C | 99% | 1012.1 hPa | 0 mm | - | 37 W/m² | - |
| 1778067044 | 6.67° C | 99% | 1011.6 hPa | 0 mm | - | 39 W/m² | - |
| 1778066740 | 6.67° C | 99% | 1011.2 hPa | 0 mm | - | 45 W/m² | - |
| 1778064923 | 6.67° C | 99% | 1010.8 hPa | 0 mm | - | 9 W/m² | - |
| 1778063410 | 7.22° C | 99% | 1010.5 hPa | 0 mm | - | 0 W/m² | - |
| 1778063108 | 7.22° C | 99% | 1010.5 hPa | 0 mm | - | 0 W/m² | - |
| 1778062199 | 7.22° C | 99% | 1009.8 hPa | 0 mm | - | 0 W/m² | - |
| 1778061595 | 7.22° C | 99% | 1009.6 hPa | 0 mm | - | 0 W/m² | - |
| 1778060083 | 7.22° C | 99% | 1010.1 hPa | 0 mm | - | 0 W/m² | - |
| 1778059478 | 7.78° C | 99% | 1010.1 hPa | 0 mm | - | 0 W/m² | - |
| 1778059174 | 7.78° C | 99% | 1010 hPa | 0 mm | - | 0 W/m² | - |
| 1778058873 | 7.78° C | 99% | 1010 hPa | 0 mm | - | 0 W/m² | - |
| 1778058267 | 7.78° C | 99% | 1009.6 hPa | 0 mm | - | 0 W/m² | - |
| 1778057660 | 7.78° C | 99% | 1009.4 hPa | 0 mm | - | 0 W/m² | - |
| 1778057054 | 8.33° C | 99% | 1009.4 hPa | 1.78 mm | - | 0 W/m² | - |
| 1778055841 | 8.33° C | 99% | 1009 hPa | 0 mm | - | 0 W/m² | - |
* Rain latest hour (hover to see other rain measurements)
** Current wind speed in m/s (hover to see current wind gust speed)